Saint-Yan, France

5:45 PM CET on February 19, 2017 (GMT +0100)
Saint Yan

Weather History for LFLN - February, 2013

Change the Weather History Date:

Tuesday, February 26, 2013

  Actual Average Record
Temperature  
Mean Temperature 26 °F -  
Max Temperature 37 °F - - ()
Min Temperature 15 °F - - ()
Degree Days  
Heating Degree Days 39    
Moisture  
Dew Point 23 °F    
Average Humidity 86    
Maximum Humidity 100    
Minimum Humidity 70    
Precipitation  
Precipitation 0.00 in - - ()
Sea Level Pressure  
Sea Level Pressure 30.22 in    
Wind  
Wind Speed 2 mph ()    
Max Wind Speed 7 mph    
Max Gust Speed -    
Visibility 2.8 miles    
Events      
T = Trace of Precipitation, MM = Missing Value Source: Averaged Metar Reports

Daily Weather History Graph

Daily Weather History Graph

Search for Another Location

Airport or City:

Trip Planner

Search our weather history database for the weather conditions in past years. The results will help you decide how hot, cold, wet, or windy it might be!

Date:

Astronomy

Feb. 26, 2013 Rise Set
Actual Time 7:28 AM CET 6:25 PM CET
Civil Twilight 6:58 AM CET 6:56 PM CET
Nautical Twilight 6:23 AM CET 7:30 PM CET
Astronomical Twilight 5:48 AM CET 8:05 PM CET
Moon 7:32 PM CET (2/26) 7:17 AM CET (2/26)
Length of Visible Light 11h 57m
Length of Day
10h 57m
Full, 100% of the Moon is Illuminated
Feb 26
Full
Mar 4
Last Quarter
Mar 11
New
Mar 19
First Quarter
Mar 27
Full

Hourly Weather History & Observations

Time (CET) Temp. Windchill Dew Point Humidity Pressure Visibility Wind Dir Wind Speed Gust Speed Precip Events Conditions
12:00 AM 21.2 °F 16.4 °F 19.4 °F 93% 30.15 in - SSE 3.5 mph - N/A   Partly Cloudy
12:30 AM 21.2 °F 14.9 °F 19.4 °F 93% 30.15 in - SSE 4.6 mph - N/A   Mist
1:00 AM 21.2 °F 16.4 °F 19.4 °F 93% 30.15 in - Variable 3.5 mph - N/A   Partly Cloudy
1:30 AM 21.2 °F - 19.4 °F 93% 30.15 in - Variable 1.2 mph - N/A   Scattered Clouds
2:00 AM 19.4 °F - 17.6 °F 93% 30.18 in - Calm Calm - N/A   Mostly Cloudy
2:30 AM 19.4 °F - 17.6 °F 93% 30.18 in - SSW 2.3 mph - N/A   Mostly Cloudy
3:00 AM 19.4 °F - 17.6 °F 93% 30.18 in - Variable 2.3 mph - N/A   Mist
3:30 AM 19.4 °F - 17.6 °F 93% 30.18 in 2.2 mi Calm Calm - N/A   Mist
4:00 AM 17.6 °F - 17.6 °F 100% 30.18 in - Calm Calm - N/A   Mist
4:30 AM 17.6 °F - 17.6 °F 100% 30.18 in 2.2 mi Calm Calm - N/A   Mist
5:00 AM 17.6 °F - 15.8 °F 93% 30.18 in - Variable 2.3 mph - N/A   Mist
5:30 AM 17.6 °F 12.3 °F 15.8 °F 93% 30.18 in 1.9 mi Variable 3.5 mph - N/A   Mist
6:00 AM 17.6 °F - 15.8 °F 93% 30.18 in - Calm Calm - N/A   Mist
6:30 AM 17.6 °F - 15.8 °F 93% 30.18 in 1.9 mi Calm Calm - N/A   Mist
7:00 AM 15.8 °F - 15.8 °F 100% 30.18 in - South 1.2 mph - N/A   Mist
7:30 AM 15.8 °F - 14.0 °F 93% 30.18 in - SE 2.3 mph - N/A   Mist
8:00 AM 15.8 °F - 14.0 °F 93% 30.21 in - SE 2.3 mph - N/A   Mist
8:30 AM 17.6 °F - 15.8 °F 93% 30.21 in - Calm Calm - N/A   Mist
9:00 AM 19.4 °F - 17.6 °F 93% 30.24 in - Variable 1.2 mph - N/A   Mist
9:30 AM 21.2 °F - 19.4 °F 93% 30.24 in - Calm Calm - N/A   Mist
10:00 AM 23.0 °F - 19.4 °F 86% 30.24 in - Variable 2.3 mph - N/A   Mist
10:30 AM 24.8 °F 20.5 °F 23.0 °F 93% 30.24 in 2.5 mi Variable 3.5 mph - N/A   Mist
11:00 AM 26.6 °F - 23.0 °F 86% 30.24 in - Variable 2.3 mph - N/A   Mist
11:30 AM 28.4 °F - 24.8 °F 86% 30.24 in - Variable 1.2 mph - N/A   Mist
12:00 PM 32.0 °F - 24.8 °F 75% 30.24 in - Variable 1.2 mph - N/A   Mist
12:30 PM 33.8 °F - 26.6 °F 75% 30.24 in 3.1 mi Variable 2.3 mph - N/A   Mist
1:00 PM 33.8 °F - 24.8 °F 70% 30.24 in 3.1 mi Variable 1.2 mph - N/A   Partly Cloudy
1:30 PM 35.6 °F - 26.6 °F 70% 30.24 in 3.1 mi Calm Calm - N/A   Partly Cloudy
2:00 PM 35.6 °F 32.8 °F 26.6 °F 70% 30.24 in 3.1 mi NNW 3.5 mph - N/A   Partly Cloudy
2:30 PM 35.6 °F 31.7 °F 26.6 °F 70% 30.24 in 3.7 mi NW 4.6 mph - N/A   Partly Cloudy
3:00 PM 37.4 °F 33.8 °F 28.4 °F 70% 30.21 in 3.7 mi NW 4.6 mph - N/A   Unknown
3:30 PM 37.4 °F 32.1 °F 28.4 °F 70% 30.21 in 3.7 mi WNW 6.9 mph - N/A   Unknown
4:00 PM 37.4 °F 32.1 °F 28.4 °F 70% 30.21 in 3.1 mi West 6.9 mph - N/A   Partly Cloudy
4:30 PM 35.6 °F 29.9 °F 28.4 °F 75% 30.21 in 3.1 mi West 6.9 mph - N/A   Mostly Cloudy
5:00 PM 35.6 °F 30.7 °F 28.4 °F 75% 30.21 in 3.1 mi West 5.8 mph - N/A   Scattered Clouds
5:30 PM 35.6 °F 31.7 °F 28.4 °F 75% 30.24 in 3.1 mi WSW 4.6 mph - N/A   Scattered Clouds
6:00 PM 33.8 °F 30.8 °F 26.6 °F 75% 30.24 in - WSW 3.5 mph - N/A   Partly Cloudy
6:30 PM 32.0 °F 28.7 °F 26.6 °F 80% 30.24 in - SSW 3.5 mph - N/A   Mostly Cloudy
7:00 PM 30.2 °F 26.7 °F 24.8 °F 80% 30.24 in - WSW 3.5 mph - N/A   Mostly Cloudy
7:30 PM 32.0 °F - 26.6 °F 80% 30.27 in 2.8 mi SSW 2.3 mph - N/A   Overcast
8:00 PM 32.0 °F - 26.6 °F 80% 30.27 in - SW 2.3 mph - N/A   Overcast
8:30 PM 32.0 °F - 26.6 °F 80% 30.27 in - Variable 1.2 mph - N/A   Overcast
9:00 PM 30.2 °F - 28.4 °F 93% 30.27 in - SSW 2.3 mph - N/A   Overcast
9:30 PM 30.2 °F - 28.4 °F 93% 30.27 in - Variable 2.3 mph - N/A   Overcast
10:00 PM 32.0 °F - 28.4 °F 87% 30.27 in - Calm Calm - N/A   Overcast
10:30 PM 30.2 °F - 28.4 °F 93% 30.30 in - Variable 2.3 mph - N/A   Overcast
11:00 PM 30.2 °F - 28.4 °F 93% 30.27 in 1.8 mi South 1.2 mph - N/A   Overcast
11:30 PM 28.4 °F - 26.6 °F 93% 30.27 in 1.4 mi Variable 2.3 mph - N/A   Partly Cloudy